Wind_Speed
6 7 6 5 5 5 5 5 4 4 4 4 4 5 5 4 4 3 3 2 1 1 1 1 2 1 1 2 2 2 2 2 3 3 3 4 4 4 4 4 4 5 6
6 6 6 5 3 4 4 4 3 2 3 3 4 4 4 3 3 2 2 2 1 1 1 2 2 2 2 2 2 3 3 3 3 4 5 4 4 4 4 4 5 5 5
6 6 6 6 4 3 3 3 3 2 2 3 3 3 3 2 2 2 2 1 2 1 2 3 3 4 3 4 4 4 4 4 5 5 5 6 6 5 6 6 6 6 7
6 6 6 6 5 4 4 5 4 2 1 2 2 2 1 1 1 1 1 2 2 2 2 3 3 4 4 5 5 5 6 5 6 6 7 7 7 7 7 7 7 7 8
6 5 5 5 4 4 5 5 4 3 1 1 1 1 1 1 1 1 1 2 2 3 3 3 3 4 5 5 6 6 7 7 7 7 7 7 7 8 8 9 9 10 10
6 5 5 4 4 4 4 4 3 2 1 1 0 0 1 1 1 2 2 3 3 3 4 4 5 5 5 5 6 7 8 8 8 8 8 8 8 9 9 10 11 11 11
6 5 5 5 4 4 3 3 3 2 1 1 1 1 2 3 3 4 4 4 4 4 5 5 5 6 7 6 6 8 8 8 8 8 9 10 11 11 11 11 12 12 12
6 6 6 5 4 4 4 3 3 2 2 2 2 3 3 4 5 5 6 6 6 6 6 7 7 8 8 8 8 8 8 9 9 9 9 11 12 11 12 12 13 13 13
6 6 5 5 5 5 6 5 5 4 4 4 4 4 5 6 6 7 7 8 8 8 8 9 9 10 10 9 9 9 10 10 11 11 11 12 12 12 13 13 13 13 14
6 6 6 6 6 6 6 6 6 6 6 6 6 6 7 7 8 9 10 10 10 10 10 11 11 11 11 11 11 11 12 12 12 12 12 12 13 13 14 13 13 13 14
6 7 7 7 7 7 7 7 7 7 7 7 8 8 8 8 9 10 11 11 12 12 12 13 12 12 12 13 13 13 13 13 13 13 13 14 14 14 14 13 13 14 14
8 8 9 9 10 9 9 8 8 8 8 9 9 8 8 9 9 10 10 12 13 13 13 14 13 13 14 14 15 14 14 14 14 14 15 15 15 15 15 15 15 14 15
9 10 10 11 11 11 10 10 9 9 10 10 10 10 10 10 10 11 11 12 13 14 14 14 15 15 15 15 15 15 15 15 16 16 16 16 15 15 15 15 15 15 15
11 11 12 12 13 12 12 11 11 11 11 11 12 12 12 12 13 13 13 14 14 14 15 15 15 16 16 15 16 16 16 16 16 16 16 16 15 15 15 16 16 16 16
12 12 12 13 13 13 12 12 13 13 12 12 13 13 14 14 15 15 16 15 16 16 16 16 16 17 16 15 16 16 16 16 16 15 15 15 15 15 16 16 17 17 16
14 14 14 15 14 14 14 14 15 15 14 14 15 15 15 16 16 17 18 17 18 18 17 17 17 17 18 17 17 18 17 17 17 17 16 17 17 17 17 17 17 17 16
16 16 16 16 16 16 16 17 17 16 16 17 17 17 17 17 18 19 19 19 19 19 19 19 19 19 19 19 19 19 18 18 19 19 18 18 18 18 18 19 18 17 17
16 17 17 17 17 17 18 18 18 18 18 18 18 18 18 18 19 19 19 19 20 20 20 20 20 20 20 19 20 20 20 20 20 20 20 19 19 19 19 19 18 18 18
17 18 18 18 19 19 19 20 20 20 19 20 20 19 19 20 20 20 20 20 21 21 21 21 21 22 21 21 21 21 21 21 21 21 21 21 21 21 20 20 19 18 19
19 19 20 20 21 21 21 22 22 22 22 22 22 21 21 22 22 22 22 22 22 22 22 22 23 24 24 24 23 23 23 23 23 23 23 23 22 22 22 21 20 20 20
21 21 22 22 23 23 23 24 24 23 24 24 24 24 24 24 24 24 24 24 24 24 24 24 25 24 25 25 25 25 24 23 24 24 24 24 24 24 24 23 22 22 21
23 23 23 24 24 24 24 25 25 25 25 25 26 26 26 26 26 26 27 26 26 26 26 26 26 26 26 26 27 26 25 25 25 25 25 26 25 25 24 24 23 23 23
24 24 24 25 25 25 25 26 26 26 26 26 27 27 28 28 28 28 28 28 28 28 28 28 28 28 28 28 28 28 27 27 27 27 27 26 26 25 25 24 24 23 23
26 26 26 27 27 27 27 27 27 28 28 28 28 29 30 30 30 29 29 28 29 29 29 29 28 28 28 28 28 28 28 28 28 28 28 27 27 27 25 25 25 24 24
27 28 28 29 29 29 29 29 29 29 29 29 29 30 30 29 30 30 29 29 29 30 31 30 30 30 30 29 29 29 29 29 28 28 28 28 27 27 26 25 25 25 24
29 29 30 30 30 30 30 30 31 31 31 30 30 29 30 30 30 30 29 29 29 30 31 31 30 30 30 30 30 30 30 29 28 27 27 27 27 26 26 25 25 25 26
Wind_Direction
48 46 50 50 59 76 92 108 123 122 122 133 149 160 164 163 170 166 160 160 154 176 245 261 260 278 296 318 320 295 287 310 300 300 312 318 310 309 305 293 281 255 248
46 44 44 48 47 66 79 97 124 116 136 150 151 162 169 170 171 158 154 186 200 288 301 280 275 278 287 303 319 306 295 302 303 299 299 302 302 302 304 288 274 265 260
41 39 37 44 47 53 61 65 90 111 130 150 155 171 186 183 158 155 162 211 245 287 308 297 285 277 280 292 300 310 298 294 297 295 296 297 298 289 290 283 273 264 261
40 45 41 40 43 44 42 46 63 83 128 162 176 189 176 174 163 181 205 241 267 297 313 312 295 284 285 286 283 303 300 293 292 293 292 293 292 288 286 279 274 274 268
41 43 42 38 38 41 43 43 47 59 87 101 104 94 114 163 178 230 242 267 278 287 291 297 293 289 292 298 294 293 295 296 297 293 287 289 290 285 282 279 280 280 276
39 37 37 32 34 41 38 40 42 46 68 85 49 21 312 289 273 283 281 278 275 278 284 291 294 290 289 292 300 299 297 298 300 292 287 289 294 290 284 281 281 281 277
34 33 31 28 29 22 14 13 17 22 360 343 318 290 280 279 278 284 287 288 289 285 288 285 285 288 286 295 297 299 299 300 301 294 289 288 292 293 290 283 281 281 276
27 28 28 23 10 353 346 344 342 333 320 318 310 299 284 276 274 277 281 285 287 283 280 281 284 287 285 291 293 295 294 297 301 297 296 293 293 292 295 291 282 280 276
12 14 16 8 358 350 336 328 314 305 304 302 297 295 294 284 282 279 280 282 286 284 284 286 286 289 288 291 292 292 290 292 296 295 295 295 296 294 293 292 289 281 275
354 354 351 350 352 348 337 325 310 303 300 293 288 287 288 287 284 283 282 281 281 280 282 286 289 287 289 293 290 288 287 290 293 292 291 293 293 291 291 289 287 283 277
335 336 337 336 334 333 326 316 304 303 299 295 293 293 290 286 285 285 285 283 280 280 281 281 283 286 289 292 288 285 287 290 291 289 289 291 291 290 289 289 287 282 280
324 324 323 325 323 320 313 310 306 299 291 287 287 291 293 289 285 285 287 286 284 283 281 279 279 278 283 285 287 285 289 291 288 288 289 291 290 287 288 287 286 284 281
313 312 313 316 318 316 309 305 301 298 289 284 282 284 287 285 280 282 284 286 286 283 280 280 280 275 279 284 286 288 290 290 289 289 290 290 290 286 286 285 283 281 279
304 307 311 314 316 315 309 305 304 298 292 288 284 282 283 284 282 284 285 284 284 283 282 283 283 283 281 282 287 290 291 293 292 293 293 293 292 287 286 285 283 280 278
302 302 305 308 310 310 309 305 306 298 294 291 287 284 282 282 283 284 285 284 283 282 283 282 282 281 283 281 285 290 292 294 294 293 292 293 292 289 286 284 283 280 277
300 300 300 302 303 303 301 301 301 296 293 293 292 287 282 282 284 285 285 284 284 284 283 281 283 283 283 282 284 289 291 291 293 294 291 289 289 289 286 284 282 279 276
299 299 299 299 298 298 297 298 297 296 291 290 290 289 287 285 286 287 286 285 286 285 284 281 282 283 285 284 282 283 287 289 290 290 292 290 286 285 284 282 282 279 276
297 298 298 297 297 297 294 294 295 294 293 291 290 289 289 289 288 289 288 288 288 284 282 282 281 282 284 284 285 283 285 287 288 288 289 288 287 286 284 283 283 280 277
296 297 298 297 296 297 295 294 293 292 292 290 289 288 287 287 287 288 288 288 286 284 283 283 280 279 280 282 284 283 283 284 284 285 286 287 287 285 284 283 282 281 279
294 294 295 295 294 294 293 292 292 291 290 289 289 286 285 285 285 284 284 286 285 283 284 283 281 280 279 280 282 282 283 284 284 284 284 284 284 282 281 281 280 278 276
294 294 293 293 293 292 292 292 291 291 290 289 289 286 284 284 283 282 282 283 282 281 282 283 283 281 280 280 281 282 283 283 283 283 283 284 284 282 281 281 280 280 278
294 294 293 293 293 292 291 292 292 292 290 288 287 286 283 283 282 282 281 280 280 280 279 281 282 282 282 280 279 279 280 281 282 282 282 282 282 281 280 279 279 279 277
294 294 293 292 292 292 292 292 290 290 290 289 287 284 282 282 281 281 281 279 279 280 280 280 281 280 280 280 278 278 278 279 280 281 281 280 280 279 278 278 278 277 276
294 294 293 293 292 292 292 293 292 290 290 290 288 286 284 282 280 280 280 278 277 278 279 280 280 279 278 278 278 277 276 277 279 280 280 280 280 279 278 278 278 276 275
293 293 294 293 293 292 292 291 291 292 291 290 289 287 286 284 282 280 280 279 278 278 279 279 280 279 278 277 279 278 276 277 278 279 278 277 278 278 278 278 276 276 275
292 293 293 293 292 293 293 292 291 291 290 288 287 286 285 283 282 280 280 280 280 279 279 280 279 278 277 277 278 278 276 275 276 275 276 276 277 277 276 277 277 277 275
Height
5878 5877 5876 5875 5874 5873 5873 5872 5872 5872 5872 5872 5872 5872 5873 5874 5874 5875 5875 5875 5875 5875 5875 5874 5874 5874 5874 5873 5872 5872 5871 5871 5870 5869 5868 5868 5867 5866 5865 5864 5864 5864 5863
5879 5878 5877 5876 5875 5874 5874 5873 5873 5873 5873 5873 5873 5873 5874 5874 5874 5875 5875 5874 5875 5874 5874 5874 5873 5873 5873 5872 5871 5871 5870 5869 5869 5868 5867 5866 5865 5864 5864 5863 5862 5862 5862
5880 5879 5877 5877 5876 5875 5875 5874 5874 5874 5873 5873 5873 5874 5874 5874 5874 5874 5874 5874 5874 5874 5873 5873 5872 5872 5871 5871 5870 5869 5869 5868 5867 5866 5865 5865 5864 5863 5862 5861 5861 5860 5860
5880 5879 5878 5877 5876 5876 5875 5875 5875 5874 5874 5874 5874 5874 5874 5874 5874 5874 5873 5873 5873 5872 5872 5871 5871 5870 5870 5869 5869 5868 5867 5866 5865 5864 5863 5862 5861 5860 5860 5859 5859 5858 5858
5880 5879 5879 5878 5877 5876 5875 5875 5875 5875 5874 5874 5874 5874 5874 5873 5873 5873 5872 5872 5872 5871 5871 5870 5869 5869 5868 5867 5867 5866 5865 5864 5863 5862 5861 5860 5859 5858 5857 5857 5856 5856 5855
5880 5879 5879 5878 5877 5876 5876 5875 5875 5874 5874 5874 5874 5873 5873 5873 5872 5872 5871 5871 5870 5870 5869 5869 5868 5867 5866 5865 5865 5864 5863 5862 5860 5859 5858 5857 5856 5855 5854 5854 5853 5852 5852
5881 5880 5879 5878 5877 5876 5875 5875 5874 5874 5873 5873 5873 5872 5872 5872 5871 5871 5870 5870 5869 5868 5867 5867 5866 5865 5863 5862 5862 5861 5860 5859 5858 5856 5855 5854 5853 5852 5851 5850 5849 5848 5848
5880 5879 5878 5877 5877 5875 5875 5874 5873 5873 5872 5872 5872 5871 5871 5871 5870 5869 5869 5868 5867 5866 5865 5865 5864 5863 5861 5860 5859 5858 5857 5856 5855 5854 5852 5851 5850 5849 5847 5846 5845 5844 5844
5880 5879 5878 5877 5876 5874 5873 5872 5871 5871 5871 5870 5870 5870 5869 5868 5868 5867 5866 5866 5865 5864 5863 5862 5861 5860 5859 5857 5856 5855 5855 5853 5852 5851 5849 5848 5846 5845 5844 5842 5841 5840 5839
5879 5878 5877 5875 5874 5873 5871 5870 5870 5869 5869 5868 5868 5867 5867 5866 5865 5865 5864 5863 5862 5861 5860 5860 5858 5857 5856 5855 5853 5852 5851 5850 5849 5847 5846 5844 5843 5841 5840 5838 5837 5836 5835
5878 5876 5875 5874 5872 5871 5870 5868 5867 5867 5866 5866 5865 5864 5864 5863 5862 5862 5860 5859 5859 5858 5857 5856 5855 5853 5852 5851 5850 5848 5847 5846 5844 5843 5841 5840 5838 5837 5836 5834 5833 5831 5830
5876 5875 5873 5872 5870 5868 5867 5866 5865 5864 5864 5863 5862 5861 5860 5860 5859 5858 5857 5856 5855 5854 5853 5852 5851 5850 5849 5848 5846 5845 5843 5842 5840 5838 5837 5836 5834 5833 5832 5830 5829 5827 5826
5874 5872 5870 5869 5867 5865 5864 5863 5862 5861 5861 5860 5859 5858 5857 5856 5855 5855 5854 5852 5851 5851 5849 5848 5847 5846 5845 5844 5843 5841 5839 5837 5836 5834 5832 5831 5829 5828 5827 5826 5824 5823 5821
5871 5869 5868 5866 5864 5862 5861 5860 5859 5858 5857 5856 5855 5854 5853 5852 5851 5850 5849 5848 5847 5846 5845 5844 5843 5841 5840 5840 5838 5836 5835 5833 5831 5829 5828 5826 5825 5823 5822 5821 5820 5818 5817
5868 5866 5864 5863 5861 5859 5858 5857 5855 5854 5853 5852 5851 5849 5848 5848 5846 5846 5844 5843 5843 5842 5840 5839 5838 5837 5836 5834 5833 5831 5830 5828 5826 5825 5823 5822 5820 5819 5818 5816 5815 5814 5812
5864 5862 5861 5859 5857 5856 5854 5853 5851 5850 5849 5847 5846 5845 5844 5843 5842 5840 5839 5838 5837 5837 5835 5834 5833 5832 5831 5830 5828 5827 5825 5824 5822 5820 5819 5817 5816 5815 5813 5811 5810 5809 5807
5860 5859 5857 5855 5854 5852 5850 5849 5847 5846 5844 5842 5841 5840 5839 5838 5837 5835 5834 5833 5832 5831 5830 5829 5828 5827 5826 5824 5823 5821 5820 5819 5817 5816 5814 5812 5811 5810 5808 5807 5805 5804 5802
5856 5854 5852 5851 5849 5847 5846 5844 5843 5841 5839 5838 5836 5835 5834 5833 5831 5830 5828 5827 5826 5825 5824 5823 5822 5821 5820 5819 5817 5816 5815 5814 5812 5810 5809 5807 5806 5804 5803 5801 5800 5799 5798
5851 5849 5848 5846 5844 5842 5841 5839 5837 5836 5834 5833 5831 5830 5828 5827 5826 5824 5823 5821 5820 5819 5818 5817 5816 5815 5814 5813 5812 5810 5809 5808 5806 5805 5803 5802 5800 5799 5797 5796 5795 5794 5793
5846 5844 5842 5841 5839 5837 5835 5833 5832 5830 5828 5827 5825 5824 5822 5821 5820 5818 5817 5815 5814 5812 5812 5811 5810 5809 5808 5806 5805 5804 5803 5801 5800 5798 5797 5795 5794 5792 5791 5790 5789 5788 5787
5840 5838 5837 5835 5833 5831 5829 5827 5825 5824 5822 5820 5818 5817 5815 5814 5812 5811 5810 5808 5807 5806 5805 5804 5803 5801 5800 5799 5798 5797 5795 5794 5793 5791 5790 5789 5787 5785 5784 5783 5782 5781 5780
5834 5832 5830 5828 5826 5824 5822 5820 5818 5817 5815 5813 5811 5809 5808 5806 5805 5803 5802 5801 5800 5798 5797 5796 5795 5794 5793 5792 5791 5789 5788 5787 5785 5785 5783 5781 5780 5778 5777 5776 5775 5774 5773
5827 5825 5823 5821 5819 5817 5815 5813 5811 5809 5807 5805 5803 5801 5800 5798 5796 5795 5794 5792 5791 5790 5789 5788 5787 5786 5785 5784 5782 5781 5780 5779 5777 5776 5775 5773 5772 5771 5769 5768 5767 5767 5766
5821 5818 5816 5814 5812 5810 5807 5805 5803 5801 5799 5797 5795 5793 5791 5790 5788 5786 5785 5783 5782 5781 5780 5779 5778 5777 5775 5774 5773 5772 5771 5770 5769 5767 5766 5765 5764 5763 5762 5761 5760 5759 5759
5813 5810 5808 5806 5803 5801 5799 5797 5795 5792 5790 5788 5786 5784 5782 5781 5779 5777 5776 5775 5774 5772 5770 5769 5768 5767 5766 5765 5764 5762 5761 5760 5760 5758 5757 5757 5756 5755 5754 5753 5752 5751 5750
5804 5802 5799 5797 5795 5792 5790 5788 5785 5783 5781 5779 5777 5774 5773 5771 5770 5768 5767 5766 5765 5763 5761 5760 5759 5758 5756 5755 5754 5752 5751 5751 5750 5749 5748 5748 5747 5746 5746 5745 5744 5743 5742